Time,TemperatureF,DewpointF,PressureIn,WindDirection,WindDirectionDegrees,WindSpeedMPH,WindSpeedGustMPH,Humidity,HourlyPrecipIn,Conditions,Clouds,dailyrainin,SoftwareType,DateUTC
2013-08-31 00:00:00,65.0,50.0,-100.00,NNW,336,3.0,-999.0,59,0.00,,,-99.99,,2013-08-31 07:00:00,
2013-08-31 00:42:00,65.0,50.0,-100.00,NNW,336,3.0,-999.0,59,0.00,,,-99.99,,2013-08-31 07:42:00,
2013-08-31 00:52:00,65.0,50.0,-100.00,NNW,336,3.0,-999.0,59,0.00,,,-99.99,,2013-08-31 07:52:00,
2013-08-31 01:00:00,63.0,50.0,-100.00,NNW,332,2.0,-999.0,62,0.00,,,-99.99,,2013-08-31 08:00:00,
2013-08-31 01:42:00,63.0,50.0,-100.00,NNW,332,2.0,-999.0,62,0.00,,,-99.99,,2013-08-31 08:42:00,
2013-08-31 01:52:00,63.0,50.0,-100.00,NNW,332,2.0,-999.0,62,0.00,,,-99.99,,2013-08-31 08:52:00,
2013-08-31 02:00:00,61.0,50.0,-100.00,North,6,1.0,-999.0,67,0.00,,,-99.99,,2013-08-31 09:00:00,
2013-08-31 02:44:00,61.0,50.0,-100.00,North,6,1.0,-999.0,67,0.00,,,-99.99,,2013-08-31 09:44:00,
2013-08-31 02:53:00,61.0,50.0,-100.00,North,6,1.0,-999.0,67,0.00,,,-99.99,,2013-08-31 09:53:00,
2013-08-31 03:00:00,59.0,50.0,-100.00,ENE,66,0.0,-999.0,71,0.00,,,-99.99,,2013-08-31 10:00:00,
2013-08-31 03:43:00,59.0,50.0,-100.00,ENE,66,0.0,-999.0,71,0.00,,,-99.99,,2013-08-31 10:43:00,
2013-08-31 03:53:00,59.0,50.0,-100.00,ENE,66,0.0,-999.0,71,0.00,,,-99.99,,2013-08-31 10:53:00,
2013-08-31 04:00:00,58.0,50.0,-100.00,South,173,2.0,-999.0,73,0.00,,,-99.99,,2013-08-31 11:00:00,
2013-08-31 04:42:00,58.0,50.0,-100.00,South,173,2.0,-999.0,73,0.00,,,-99.99,,2013-08-31 11:42:00,
2013-08-31 04:52:00,58.0,50.0,-100.00,South,173,2.0,-999.0,73,0.00,,,-99.99,,2013-08-31 11:52:00,
2013-08-31 05:00:00,55.0,49.0,-100.00,South,179,2.0,-999.0,79,0.00,,,-99.99,,2013-08-31 12:00:00,
2013-08-31 05:42:00,55.0,49.0,-100.00,South,179,2.0,-999.0,79,0.00,,,-99.99,,2013-08-31 12:42:00,
2013-08-31 05:52:00,55.0,49.0,-100.00,South,179,2.0,-999.0,79,0.00,,,-99.99,,2013-08-31 12:52:00,
2013-08-31 06:00:00,54.0,48.0,-100.00,SSE,161,3.0,-999.0,81,0.00,,,-99.99,,2013-08-31 13:00:00,
2013-08-31 06:42:00,54.0,48.0,-100.00,SSE,161,3.0,-999.0,81,0.00,,,-99.99,,2013-08-31 13:42:00,
2013-08-31 06:52:00,54.0,48.0,-100.00,SSE,161,3.0,-999.0,81,0.00,,,-99.99,,2013-08-31 13:52:00,
2013-08-31 07:00:00,52.0,47.0,-100.00,South,171,2.0,-999.0,84,0.00,,,-99.99,,2013-08-31 14:00:00,
2013-08-31 07:42:00,52.0,47.0,-100.00,South,171,2.0,-999.0,84,0.00,,,-99.99,,2013-08-31 14:42:00,
2013-08-31 07:52:00,52.0,47.0,-100.00,South,171,2.0,-999.0,84,0.00,,,-99.99,,2013-08-31 14:52:00,
2013-08-31 08:00:00,54.0,48.0,-100.00,South,186,2.0,-999.0,80,0.00,,,-99.99,,2013-08-31 15:00:00,
2013-08-31 08:45:00,54.0,48.0,-100.00,South,186,2.0,-999.0,80,0.00,,,-99.99,,2013-08-31 15:45:00,
2013-08-31 08:55:00,54.0,48.0,-100.00,South,186,2.0,-999.0,80,0.00,,,-99.99,,2013-08-31 15:55:00,
2013-08-31 09:00:00,58.0,49.0,-100.00,SSE,149,2.0,-999.0,71,0.00,,,-99.99,,2013-08-31 16:00:00,
2013-08-31 09:44:00,58.0,49.0,-100.00,SSE,149,2.0,-999.0,71,0.00,,,-99.99,,2013-08-31 16:44:00,
2013-08-31 09:52:00,58.0,49.0,-100.00,SSE,149,2.0,-999.0,71,0.00,,,-99.99,,2013-08-31 16:52:00,
2013-08-31 10:00:00,66.0,50.0,-100.00,South,190,2.0,-999.0,56,0.00,,,-99.99,,2013-08-31 17:00:00,
2013-08-31 10:43:00,66.0,50.0,-100.00,South,190,2.0,-999.0,56,0.00,,,-99.99,,2013-08-31 17:43:00,
2013-08-31 10:53:00,66.0,50.0,-100.00,South,190,2.0,-999.0,56,0.00,,,-99.99,,2013-08-31 17:53:00,
2013-08-31 11:00:00,75.0,51.0,-100.00,WNW,288,1.0,-999.0,43,0.00,,,-99.99,,2013-08-31 18:00:00,
2013-08-31 11:52:00,75.0,51.0,-100.00,WNW,288,1.0,-999.0,43,0.00,,,-99.99,,2013-08-31 18:52:00,
2013-08-31 12:00:00,77.0,52.0,-100.00,NW,315,3.0,-999.0,42,0.00,,,-99.99,,2013-08-31 19:00:00,
2013-08-31 12:52:00,77.0,52.0,-100.00,NW,315,3.0,-999.0,42,0.00,,,-99.99,,2013-08-31 19:52:00,
2013-08-31 13:00:00,80.0,54.0,-100.00,NNW,340,3.0,-999.0,40,0.00,,,-99.99,,2013-08-31 20:00:00,
2013-08-31 13:52:00,80.0,54.0,-100.00,NNW,340,3.0,-999.0,40,0.00,,,-99.99,,2013-08-31 20:52:00,
2013-08-31 14:00:00,81.0,54.0,-100.00,NW,318,4.0,-999.0,39,0.00,,,-99.99,,2013-08-31 21:00:00,
2013-08-31 14:44:00,81.0,54.0,-100.00,NW,318,4.0,-999.0,39,0.00,,,-99.99,,2013-08-31 21:44:00,
2013-08-31 14:54:00,81.0,54.0,-100.00,NW,318,4.0,-999.0,39,0.00,,,-99.99,,2013-08-31 21:54:00,
2013-08-31 15:00:00,81.0,51.0,-100.00,SSE,164,5.0,-999.0,36,0.00,,,-99.99,,2013-08-31 22:00:00,
2013-08-31 15:53:00,81.0,51.0,-100.00,SSE,164,5.0,-999.0,36,0.00,,,-99.99,,2013-08-31 22:53:00,
2013-08-31 17:00:00,78.0,51.0,-100.00,NNW,345,1.0,-999.0,39,0.00,,,-99.99,,2013-09-01 00:00:00,
2013-08-31 17:42:00,78.0,51.0,-100.00,NNW,345,1.0,-999.0,39,0.00,,,-99.99,,2013-09-01 00:42:00,
2013-08-31 17:52:00,78.0,51.0,-100.00,NNW,345,1.0,-999.0,39,0.00,,,-99.99,,2013-09-01 00:52:00,
2013-08-31 18:00:00,76.0,53.0,-100.00,NNW,331,4.0,-999.0,44,0.00,,,-99.99,,2013-09-01 01:00:00,
2013-08-31 18:42:00,76.0,53.0,-100.00,NNW,331,4.0,-999.0,44,0.00,,,-99.99,,2013-09-01 01:42:00,
2013-08-31 18:52:00,76.0,53.0,-100.00,NNW,331,4.0,-999.0,44,0.00,,,-99.99,,2013-09-01 01:52:00,
2013-08-31 20:00:00,-999.0,-99.9,-100.00,NNW,327,4.0,-999.0,-999,-99.99,,,-99.99,,2013-09-01 03:00:00,
2013-08-31 22:00:00,63.0,55.0,-100.00,NNW,348,5.0,-999.0,73,0.00,,,-99.99,,2013-09-01 05:00:00,
2013-08-31 22:43:00,63.0,55.0,-100.00,NNW,348,5.0,-999.0,73,0.00,,,-99.99,,2013-09-01 05:43:00,
2013-08-31 22:52:00,63.0,55.0,-100.00,NNW,348,5.0,-999.0,73,0.00,,,-99.99,,2013-09-01 05:52:00,
2013-08-31 23:00:00,61.0,54.0,-100.00,NNW,348,5.0,-999.0,78,0.00,,,-99.99,,2013-09-01 06:00:00,
2013-08-31 23:42:00,61.0,54.0,-100.00,NNW,348,5.0,-999.0,78,0.00,,,-99.99,,2013-09-01 06:42:00,
2013-08-31 23:52:00,61.0,54.0,-100.00,NNW,348,5.0,-999.0,78,0.00,,,-99.99,,2013-09-01 06:52:00,